Flag Weather past 2 weeks in Atlantic City, New Jersey, U.S.A.

Now
38 °F

Rain. Fog.


Feels Like: 27 °F
Forecast: 37 / 44 °F
Wind: 24 mph from North

Location: Atlantic City International Airport

Current Time: Nov 26, 2014 at 3:44:20 PM

Latest Report: Nov 26, 2014 at 2:54 PM


Visibility: 3 mi

Pressure: 29.72 "Hg

Humidity: 97%

Dew point: 37 °F

Location of Atlantic CityLocation

Historic Weather in Atlantic City — Graph

°F

Atlantic City temperature yesterday

Maximum temperature yesterday: 63 °F (at 12:54 AM)
Minimum temperature yesterday: 46 °F (at 11:54 PM)
Average temperature yesterday: 55 °F

Past Weeks' High & Low Weather Summary

 TemperatureHumidityPressure
High69 °F (Nov 12, 1:54 PM)100% (Nov 11, 8:02 PM)30.54 "Hg (Nov 11, 8:02 PM)
Low19 °F (Nov 22, 6:54 AM)28% (Nov 21, 12:54 PM)29.52 "Hg (Nov 17, 5:54 PM)
Average42 °F66%30.08 "Hg
* Reported Nov 11 2:54 PM — Nov 26 2:54 PM, Atlantic City, Weather by CustomWeather, © 2014

Note: Actual official high and low records may vary slightly from our data, if they occured in-between our weather recording intervals... More about our weather records

Advertising

Atlantic City weather history for previous 24 hours

 ConditionsComfort  
Time TempWeatherWind HumidityBarometerVisibility
2:54 PM
Nov 26
38 °FRain. Fog.24 mph97%29.72 "Hg3 mi
1:54 PM38 °FHeavy rain. Fog.14 mph97%29.83 "Hg2 mi
12:54 PM38 °FRain. Fog.21 mph97%29.86 "Hg3 mi
12:02 PM40 °FHeavy rain. Fog.20 mph93%29.93 "Hg2 mi
11:54 AM40 °FHeavy rain. Fog.15 mph97%29.93 "Hg2 mi
10:54 AM41 °FLight rain. Fog.15 mph96%29.95 "Hg2 mi
9:54 AM42 °FRain. Fog.13 mph96%30.04 "Hg2 mi
8:54 AM42 °FLight rain. Fog.10 mph96%30.05 "Hg2 mi
7:54 AM42 °FLight rain. Fog.9 mph96%30.04 "Hg4 mi
6:54 AM42 °FLight rain. More clouds than sun.8 mph96%30.10 "Hg7 mi
5:54 AM43 °FLight rain. Overcast.8 mph89%30.09 "Hg7 mi
4:54 AM43 °FLight rain. Fog.6 mph89%30.09 "Hg6 mi
3:54 AM44 °FLight rain. Overcast.7 mph82%30.09 "Hg10 mi
2:54 AM45 °FLight rain. Overcast.6 mph80%30.15 "Hg10 mi
1:54 AM46 °FMostly cloudy.No wind73%30.15 "Hg10 mi
12:54 AM45 °FMostly cloudy.5 mph76%30.16 "Hg10 mi
11:54 PM
Nov 25
46 °FOvercast.No wind73%30.17 "Hg10 mi
10:54 PM48 °FClear.No wind63%30.17 "Hg10 mi
9:54 PM47 °FPassing clouds.No wind69%30.15 "Hg10 mi
8:54 PM47 °FClear.No wind64%30.13 "Hg10 mi
7:54 PM49 °FClear.3 mph61%30.13 "Hg10 mi
6:54 PM49 °FClear.No wind59%30.09 "Hg10 mi
5:54 PM51 °FClear.3 mph48%30.07 "Hg10 mi
4:54 PM52 °FClear.No wind47%30.07 "Hg10 mi
3:54 PM53 °FScattered clouds.6 mph45%30.04 "Hg10 mi
Weather by CustomWeather, © 2014

See weather overviewHow to use our weather pages